AirNav   Air Wisconsin Up To $57,000 Bonus
 
 981 users online  

KNFE Fentress Naval Auxiliary Field
Fentress, Virginia, USA

GOING TO FENTRESS?


FAA INFORMATION EFFECTIVE 02 JANUARY 2020

Location

FAA Identifier: NFE
Lat/Long: 36-41-31.3310N 076-08-04.4305W
36-41.522183N 076-08.073842W
36.6920364,-76.1345640
(estimated)
Elevation: 16 ft. / 5 m (estimated)
Variation: 09W (1985)
Time zone: UTC -5 (UTC -4 during Daylight Saving Time)
Zip code: 23322

Airport Operations

Airport use: Private use. Permission required prior to landing
Activation date: 08/1943
Control tower: no
ARTCC: WASHINGTON CENTER
FSS: LEESBURG FLIGHT SERVICE STATION
Attendance: UNATNDD
Segmented circle: no
Lights: RY LGTS OPERATED BY CRASH CREW DURING SCHEDULED OPNS.

Airport Communications

OCEANA APPROACH: 123.9
OCEANA DEPARTURE: 123.9
WX AWOS-3 at CPK (9 nm W): 123.675 (757-204-4290)
WX ASOS at NTU (9 nm NE): PHONE DSN 433-3619 or 757-433-3619
WX ASOS at ORF (13 nm N): PHONE 757-460-9348
WX AWOS-3PT at PVG (16 nm W): 118.375 (757-465-2175)
WX AWOS-3 at ONX (18 nm S): 119.775 (252-453-8939)

Nearby radio navigation aids

VOR radial/distance  VOR name  Freq  Var
ORFr172/12.4NORFOLK VORTAC116.9007W
ECGr011/26.1ELIZABETH CITY VOR/DME112.5007W
CCVr199/39.9CAPE CHARLES VORTAC112.2010W

 
NDB name  Hdg/Dist  Freq  Var  ID
INGLE157/10.532909WOR --- .-.
WOODVILLE027/26.925410WLLW .-.. .-.. .--

Airport Services

Runway Information

Runway 5/23

Dimensions: 8004 x 175 ft. / 2440 x 53 m
Surface: asphalt
Weight bearing capacity: 
PCN 40 /R/C/W/T
Runway edge lights: low intensity
RUNWAY 5  RUNWAY 23
Latitude: 36-41.014033N36-42.030333N
Longitude: 076-08.595917W076-07.551767W
Elevation: 14.5 ft.14.2 ft.
Traffic pattern: leftleft
Runway heading: 049 magnetic, 040 true228 magnetic, 219 true
Touchdown point: yes, no lightsyes, no lights

Airport Ownership and Management from official FAA records

Ownership: U.S. Navy
Owner: US NAVY
OCEANOGRAPHIC OFC - CODE 3142
WASHINGTON, DC 20373

Additional Remarks

FOR CD CTC WASHINGTON ARTCC AT 703-771-3587.

Instrument Procedures

There are no published instrument procedures at KNFE.

Some nearby airports with instrument procedures:

KCPK - Chesapeake Regional Airport (9 nm W)
KNTU - Oceana Naval Air Station (Apollo Soucek Field) (9 nm NE)
KORF - Norfolk International Airport (13 nm N)
KPVG - Hampton Roads Executive Airport (16 nm W)
KNGU - Norfolk Naval Station (Chambers Field) (16 nm NW)
KONX - Currituck County Regional Airport (18 nm S)
 
Loc | Ops | Rwys | IFR | FBO | Links
Com | Nav | Svcs | Stats | Notes
Area around KNFE (Fentress Naval Auxiliary Field)
 
Road maps at: MapQuest Bing Google
 
Aerial photo
WARNING: Photo may not be current or correct
Aerial photo of KNFE (Fentress Naval Auxiliary Field)
Do you have a better or more recent aerial photo of Fentress Naval Auxiliary Field that you would like to share? If so, please send us your photo.

 
Sectional chart

 
Airport distance calculator
Flying to Fentress Naval Auxiliary Field? Find the distance to fly.

From to KNFE

Sunrise and sunset
Times for 25-Jan-2020
 Local
(UTC-5)
 Zulu
(UTC)
Morning civil twilight06:4511:45
Sunrise07:1312:13
Sunset17:2122:21
Evening civil twilight17:4922:49

Current date and time
Zulu (UTC)  26-Jan-2020 03:03:00
Local (UTC-5)  25-Jan-2020 22:03:00
 
METAR
KNFE 260256Z AUTO 35004KT 10SM CLR 09/06 A2991 RMK AO2 SLP131 T00940061 51015
KCPK 
9nm W 
260255Z AUTO 36003KT 10SM CLR 09/05 A2992 RMK AO2 T00880045
KNTU 
9nm NE 
260256Z 33005KT 10SM FEW055 06/04 A2990 RMK AO2 SLP128 T00560044 51016
KORF 
13nm N 
260251Z 35006KT 10SM CLR 09/06 A2991 RMK AO2 SLP127 T00890061 51016
KNGU 
15nm NW 
260159Z 03005KT 10SM SCT055 08/07 A2992 RMK AO2 SLP132 T00830067 $
KPVG 
16nm W 
260256Z AUTO 00000KT 10SM CLR 03/03 A2993 RMK AO2 SLP135 6//// T00280028 51015 PNO $
KONX 
18nm S 
260255Z AUTO 00000KT 10SM CLR 09/05 A2991 RMK AO2 T00870052
TAF
KNTU 
9nm NE 
2515/2615 VRB06KT 9999 SCT007 BKN039 BKN090 QNH2985INS TEMPO 2515/2517 4800 -RA BR BKN007 FM251800 26010KT 9999 FEW030 QNH2980INS T17/2517Z T02/2611Z AMD 1535 FN00189
KORF 
13nm N 
251730Z 2518/2618 22009KT P6SM BKN025 FM252000 26009KT P6SM SCT025 FM252300 29005KT P6SM FEW120
KNGU 
15nm NW 
2515/2615 19004KT 9999 FEW032 BKN038 BKN050 QNH2987INS FM251800 25010KT 9999 NSW FEW030 QNH2980INS T17/2517Z T02/2611Z FN00189
NOTAMs
Click for the latest NOTAMs
NOTAMs are issued by the DoD/FAA and will open in a separate window not controlled by AirNav.

 

 
 

Would you like to see your business listed on this page?

 If your business provides an interesting product or service to pilots, flight crews, aircraft, or users of the Fentress Naval Auxiliary Field, you should consider listing it here.  To start the listing process, click on the button below
 
Add a business
 

Other Pages about Fentress Naval Auxiliary Field

Update a link
 
Copyright © AirNav, LLC. All rights reserved. Privacy Policy  Contact